Location: ČR
(50.0000°N, 15.0000°E)
Time: 02:36:24
(UTC+00:00)

N. Korean satellite - Pass Details

Date: 29 September 2021
Orbit: 450 x 495 km, 97.3° (Epoch: 22 October)

Event Time Altitude Azimuth Distance (km) Brightness Sun altitude
Rises 03:12:25 0° 31° (NNE) 2,541 11.0 -17.4°
Reaches altitude 10° 03:15:25 10° 59° (ENE) 1,666 10.5 -16.9°
Maximum altitude 03:17:13 13° 90° (E) 1,475 10.1 -16.7°
Drops below altitude 10° 03:19:00 10° 120° (ESE) 1,670 9.9 -16.4°
Sets 03:22:00 0° 148° (SSE) 2,553 10.4 -15.9°
